THOR ABLESTAR DEB, 561

Orbit data source: Space-Track

THOR ABLESTAR DEB, 561 is space debris in LEO originally from a launch on Thu, 29 Jun 1961 UTC launched from the Air Force Eastern Test Range (AFETR). Debris objects in space refer to the collection of defunct objects orbiting the Earth. Examples of debris include non-operational satellites, rocket bodies, and fragments generated from explosions, collisions, or faulty payload assembly.

Loading next visibility...
Identifier
561, 1961-015GT
Orbit
LEO
Country
Flag of USUS
Related business
Manufacturer
Unknown
Mission
Spacecraft
Bus & Motor
Unknown
Mass
Unknown
Launch date (UTC)
1961-06-29 (64 years ago)
Launch vehicle
Unknown
Launch site
Air Force Eastern Test Range (AFETR)
Object type
Payload
Rocket body
Debris
Shape & HBR
Unknown shape, 0.1 m
Radar Cross Section
Medium (>0.1 m² and <1 m²)

Expand to show TLE details & history
Last TLE update: 1 day ago

TLE from 1 day ago
0 THOR ABLESTAR DEB
1   561U 61015GT  25306.46379898  .00000080  00000-0  46468-3 0  9994
2   561  67.7564  25.5507 0622754  93.1989 357.2074 12.41294616912981
Epoch: 2025-11-02T11:07Z
TLE epoch observation values (Epoch: 2025-11-02T11:07:52.231Z)
Latitude
67.86163°
Longitude
-93.31862°
Altitude
1,022.029 km
Speed
7.573 km/s
True Right ascension
07h 42m 30s
True Declination
67° 44' 44"
Sunlit
Object was in daylight at epoch
Visualization orbit readout
Latitude
Unknown
Longitude
Unknown
Altitude
Unknown
Speed
Unknown
Apparent Right ascension
Unknown
Apparent Declination
Unknown
Sunlit
N/A
Visualization observer readout
Local Sidereal Time
18:56:45
Azimuth
Unknown
Elevation
Unknown
Doppler factor
Unknown
Orbital elements
Apogee altitude
1,990.107 km
Perigee altitude
1,008.938 km
Semi-major axis
7,877.659 km
Eccentricity
0.06228
Inclination
67.7564°
RAAN
25.5507°
Arg. of periapsis
93.1989°
True anomaly
356.83052°
Mean anomaly
357.2074°
Eccentric anomaly
357.02203°
Mean motion
3.10418 °/min
Orbital period
115.97 mins
BSTAR
0.00046468
Loading maneuver chart data...
Computing Atmospheric mass density...

Documentation

Showing up to 5 results
|